DUZEAR1 KBKW-KCRW

Flight info

Callsign DUZEAR1
Flight time N/A
Altitude 8000
Route KBKW/28 N0252F080 DCT ZUPIK DCT WEXIV DCT BUBAC DCT SCRIB DCT KCRW/05
Aircraft PC12/L-SDE2FGIRWY/SB1

Departure

Time 2026-05-08 22:55
Airport Raleigh County Memorial Airport (KBKW)

Arrival

Time N/A
Airport Yeager Airport (KCRW)
Time Latitude Longitude Altitude Speed Heading
2026-05-08 22:20 37.78414 -81.12208 2435 ft 0 kts 186°
2026-05-08 22:52 37.78412 -81.12208 2431 ft 2 kts 186°
2026-05-08 22:52 37.78404 -81.12271 2435 ft 14 kts 278°
2026-05-08 22:52 37.78410 -81.12388 2435 ft 18 kts 242°
2026-05-08 22:53 37.78299 -81.12423 2435 ft 15 kts 184°
2026-05-08 22:53 37.78260 -81.12264 2435 ft 28 kts 99°
2026-05-08 22:53 37.78232 -81.12030 2435 ft 22 kts 97°
2026-05-08 22:53 37.78211 -81.11825 2435 ft 25 kts 99°
2026-05-08 22:54 37.78190 -81.11625 2435 ft 15 kts 97°
2026-05-08 22:54 37.78143 -81.11550 2436 ft 18 kts 190°
2026-05-08 22:54 37.78138 -81.11785 2432 ft 55 kts 277°
2026-05-08 22:54 37.78212 -81.12517 2543 ft 104 kts 277°
2026-05-08 22:55 37.78327 -81.13532 3014 ft 129 kts 276°
2026-05-08 22:55 37.78438 -81.14639 4050 ft 119 kts 281°
2026-05-08 22:55 37.78551 -81.15678 5006 ft 120 kts 280°
2026-05-08 22:55 37.78663 -81.16781 5777 ft 131 kts 279°
2026-05-08 22:56 37.78781 -81.17934 6624 ft 134 kts 279°
2026-05-08 22:56 37.78901 -81.19105 7428 ft 138 kts 278°
2026-05-08 22:56 37.79030 -81.20342 7904 ft 142 kts 279°
2026-05-08 22:56 37.79173 -81.21704 8018 ft 177 kts 278°
2026-05-08 22:57 37.79435 -81.23373 8021 ft 209 kts 289°
2026-05-08 22:57 37.80165 -81.25043 8016 ft 225 kts 306°
2026-05-08 22:57 37.81321 -81.26397 7999 ft 234 kts 322°
2026-05-08 22:57 37.82683 -81.27578 8009 ft 234 kts 322°
2026-05-08 22:58 37.84025 -81.28767 7994 ft 236 kts 322°